EHI
20 18 14 7 3 1 0 0 0 0 0 0 0 0 0 0 0 0 0 1 2 2 1 1 2 1 0 0 0 0 0 0 0 0 0 0 0 0 1 0 1 2 3 4 5 4 2 2 3
17 14 9 5 2 0 0 0 0 0 0 0 0 0 0 0 0 0 0 1 1 1 1 1 2 1 0 1 1 1 1 1 1 0 0 0 0 1 1 1 0 1 2 3 4 3 3 3 4
12 9 5 3 1 0 0 0 0 0 0 0 0 0 0 0 0 0 0 0 1 1 2 2 2 1 0 1 2 2 2 2 2 1 1 1 1 1 2 1 0 0 1 2 2 2 2 3 3
7 5 2 1 0 0 0 0 0 0 0 0 0 0 0 0 0 0 0 0 1 2 3 3 2 1 0 1 1 1 1 2 2 2 2 2 2 1 1 1 0 0 0 1 1 0 1 2 3
6 3 1 0 0 0 0 0 0 0 0 0 0 0 0 0 0 0 1 1 1 1 3 3 3 2 1 1 0 1 1 1 1 1 3 3 3 2 1 0 0 0 0 0 0 0 0 1 3
4 2 0 0 0 0 0 0 0 0 0 0 0 0 0 0 0 0 1 1 0 1 3 3 3 3 2 1 1 1 2 1 0 1 2 2 2 1 0 0 0 0 0 0 0 0 0 1 2
2 1 0 0 0 0 0 0 0 0 0 0 0 0 0 0 0 0 0 0 0 1 2 2 2 2 1 1 0 1 1 1 0 0 1 1 0 0 0 0 0 0 0 0 0 0 0 0 1
0 0 0 0 0 0 0 0 0 0 0 0 0 0 1 1 1 0 0 0 0 1 1 1 0 0 0 0 0 0 0 0 0 0 0 0 0 0 0 0 0 0 0 0 0 0 0 0 0
0 0 0 0 0 0 0 0 0 0 0 0 1 1 1 2 1 0 0 0 0 0 0 0 0 0 0 0 0 0 0 0 0 0 0 0 0 0 0 0 0 0 0 0 0 0 0 0 0
0 0 0 0 0 0 0 0 0 0 0 0 2 2 2 2 1 0 0 0 0 0 0 0 0 0 0 0 0 0 0 0 0 0 0 0 0 0 0 0 0 0 0 0 0 0 0 0 0
0 0 0 0 0 0 0 0 0 0 0 1 2 3 2 1 0 0 0 0 0 0 0 0 0 0 0 0 0 0 0 0 0 0 0 0 0 0 0 0 0 0 0 0 0 0 0 0 0
0 0 0 0 0 0 0 0 0 0 1 1 2 3 1 0 0 0 0 0 0 0 0 0 0 1 1 1 0 0 0 0 0 0 0 0 0 0 0 0 0 0 0 0 0 0 0 0 0
0 0 0 0 0 0 0 0 0 1 2 2 1 2 1 0 0 0 0 0 0 0 0 0 0 1 2 1 0 0 0 0 0 0 0 0 0 0 0 0 0 0 0 0 0 0 0 0 0
0 0 0 0 0 0 0 0 0 1 2 2 1 0 0 0 0 0 0 0 0 0 0 0 0 1 1 1 0 0 0 0 0 0 0 0 0 0 0 0 0 0 0 0 0 0 0 0 0
0 0 1 0 0 0 0 0 1 2 3 2 1 0 0 0 0 0 0 0 0 0 0 0 0 0 0 0 0 0 0 0 0 0 0 0 0 0 0 0 0 0 0 0 0 0 0 0 0
0 0 0 0 0 0 0 0 1 2 3 3 1 1 0 0 0 0 0 0 0 0 0 0 0 0 0 0 0 0 0 0 0 0 0 0 0 0 0 0 0 0 0 0 0 0 0 0 0
0 0 0 0 0 0 0 0 1 2 3 3 3 2 1 0 0 0 0 0 0 0 1 1 0 0 0 0 0 0 0 0 0 0 0 0 0 0 0 0 0 0 0 0 0 0 0 0 0
0 0 0 0 0 0 0 0 0 1 2 3 3 3 1 0 0 0 0 1 1 2 2 2 1 0 0 0 0 0 0 0 0 0 0 0 0 0 0 0 0 0 0 0 0 0 0 0 0
0 0 0 0 0 0 0 0 0 0 1 2 3 3 3 1 1 1 1 1 2 3 3 3 2 1 0 0 0 0 0 0 0 0 0 0 0 0 0 0 0 0 0 0 0 0 0 0 0
0 0 0 0 0 0 0 0 0 0 0 1 2 3 4 3 3 4 4 2 1 3 3 3 2 1 0 0 0 0 0 0 0 0 0 0 0 0 0 0 0 0 0 0 0 0 0 0 0
0 0 0 0 0 0 0 0 0 0 0 0 1 2 4 4 5 7 6 3 2 2 3 3 2 1 2 2 1 1 1 1 0 0 0 0 0 0 0 0 0 0 0 0 0 0 0 0 0
0 0 0 0 0 0 0 0 0 0 0 0 0 1 3 4 6 6 6 5 3 2 2 2 2 2 3 4 3 2 2 1 0 0 0 0 0 0 0 0 0 0 0 0 0 0 0 0 0
0 0 0 0 0 0 0 0 0 0 0 0 0 0 2 4 5 6 7 7 6 5 5 4 3 2 3 4 3 3 3 2 1 0 0 0 0 0 0 0 0 0 0 0 0 0 0 0 0
0 0 0 0 0 0 0 0 0 0 0 0 0 0 1 3 6 6 7 9 9 10 10 8 6 4 4 4 4 3 3 2 1 0 0 0 0 0 0 0 0 0 0 0 0 0 0 0 0
0 0 0 0 0 0 0 0 0 0 0 0 0 0 1 3 6 8 8 10 12 13 13 12 9 8 7 6 5 3 2 1 0 0 0 0 0 0 0 0 0 0 0 0 0 0 0 0 0
0 0 0 0 0 0 0 0 0 0 0 0 0 1 2 4 6 8 9 10 12 12 12 12 11 9 9 8 5 3 2 1 0 0 0 0 0 0 0 0 0 0 0 0 0 0 0 0 0
0 0 0 0 0 0 0 0 0 0 0 0 1 2 3 4 6 8 8 8 9 9 9 11 10 9 9 8 5 2 1 0 0 1 1 0 0 0 0 0 0 0 0 0 0 0 0 0 0
0 0 0 0 0 0 0 0 0 0 0 1 1 2 4 4 7 9 9 7 6 6 7 8 8 7 6 6 5 2 0 0 0 1 1 1 0 0 0 0 0 0 0 0 0 0 0 0 0
0 0 0 0 0 0 0 0 0 0 0 1 1 2 3 4 6 9 10 8 6 5 6 6 5 4 4 4 3 2 1 0 0 1 1 1 1 0 0 0 0 0 0 0 0 0 0 0 0
0 0 0 0 0 0 0 0 0 0 0 1 1 2 3 4 5 8 10 8 5 4 6 6 4 3 3 3 3 2 2 1 1 2 2 2 1 1 0 0 0 0 0 0 0 0 0 0 0
Wind_Speed
9 9 6 2 2 1 4 5 5 5 6 6 7 8 11 12 8 7 1 4 6 8 8 8 9 10 10 11 11 11 11 12 12 12 12 12 12 12 12 12 11 11 11 11 11 11 11 11 11
9 6 4 3 2 2 5 5 7 7 5 4 6 9 11 11 10 7 3 4 6 8 8 9 9 10 11 11 11 12 12 12 12 13 13 13 12 12 12 12 12 11 11 11 12 11 11 11 11
11 7 4 2 1 3 5 6 7 6 5 4 6 9 8 7 8 5 3 4 7 9 9 9 10 10 11 11 12 12 12 13 13 13 13 13 12 12 12 12 12 11 11 11 11 11 11 11 10
6 4 3 1 6 7 6 6 6 7 6 5 7 8 8 8 6 6 4 5 8 9 9 9 10 11 11 11 12 12 13 13 13 13 13 13 12 13 12 12 12 11 11 11 11 11 11 10 10
4 3 1 3 7 7 6 6 6 6 6 7 8 10 9 8 8 7 5 6 7 8 9 9 11 11 11 12 12 12 13 13 14 14 13 12 12 12 12 12 12 12 12 12 12 11 11 11 10
3 2 1 4 7 6 5 5 6 7 8 7 8 9 7 8 7 5 5 5 7 8 9 9 11 11 11 12 12 13 13 13 13 13 13 12 12 12 12 12 12 12 12 12 12 11 11 10 10
3 1 1 6 7 5 5 5 6 6 6 6 6 8 7 7 5 4 5 6 6 7 7 7 8 9 10 11 11 12 12 12 11 11 11 11 11 11 12 12 12 11 11 11 11 11 10 9 9
2 0 2 4 6 5 5 5 5 5 6 6 5 7 7 7 5 5 5 5 5 6 6 6 7 7 6 7 10 10 9 9 9 8 9 9 10 10 11 11 11 11 11 10 10 9 9 8 7
3 0 2 4 4 5 5 5 5 6 7 8 10 11 10 8 7 5 5 5 4 5 4 5 6 6 6 6 8 7 6 6 5 5 6 5 3 4 6 9 10 10 10 9 8 7 7 6 5
0 1 4 4 5 6 5 4 4 5 6 7 10 11 10 7 6 5 5 5 5 4 4 4 5 5 5 5 4 3 3 3 2 2 2 2 3 4 6 7 8 8 7 6 5 4 4 3 2
2 3 4 6 7 6 5 5 4 5 4 6 9 9 8 6 5 5 5 5 5 4 4 4 4 5 5 3 3 2 2 2 2 3 3 3 3 3 3 2 4 4 4 2 3 1 1 3 3
3 3 4 6 6 5 5 5 5 6 5 7 8 9 7 6 5 5 5 5 5 4 4 4 4 3 4 3 2 2 2 2 2 2 3 3 2 2 2 2 2 2 2 3 2 2 4 4 5
3 4 5 5 4 5 5 5 5 5 6 8 9 8 6 5 5 5 5 5 5 4 3 4 3 3 3 4 2 3 2 2 2 2 2 3 3 2 2 2 3 3 3 3 3 4 5 5 5
4 5 5 4 5 4 5 5 4 5 6 8 8 6 5 5 4 5 5 4 4 4 3 3 3 3 3 3 2 2 2 2 2 2 2 4 3 2 3 4 3 3 3 3 3 4 4 3 4
5 5 3 3 3 4 4 3 4 6 7 7 7 6 6 5 4 4 4 3 4 3 3 3 3 3 3 3 3 2 2 2 2 2 2 3 3 3 3 3 3 2 3 3 3 4 3 4 4
6 5 4 5 5 5 4 2 5 7 7 7 6 6 5 5 5 4 3 3 4 4 3 3 3 4 3 3 3 2 2 3 2 2 3 3 4 4 4 3 2 3 3 3 3 3 3 3 3
6 5 5 5 6 5 4 3 5 6 7 6 6 6 6 5 5 4 3 3 4 4 4 3 3 4 3 3 2 2 2 3 2 2 2 3 4 4 4 3 2 3 3 2 3 3 3 3 3
5 5 5 5 6 6 5 4 7 7 7 6 6 6 6 6 5 5 4 4 4 4 4 4 3 3 3 2 2 2 3 2 3 2 3 4 3 4 4 2 3 3 3 3 3 3 2 2 2
5 5 5 4 5 5 6 6 8 7 6 6 6 6 7 6 6 6 5 4 3 4 4 4 3 3 3 2 2 2 2 2 2 2 3 3 3 3 3 2 3 3 3 2 3 3 2 1 2
7 6 4 3 5 4 5 6 7 9 8 6 6 6 6 6 7 6 6 4 3 4 4 4 2 3 4 2 2 2 2 2 2 1 2 2 3 3 2 3 2 2 2 3 3 2 1 1 1
7 5 4 3 4 7 6 7 7 9 8 6 6 6 6 7 7 7 6 5 3 3 3 3 3 3 4 3 2 2 2 1 2 1 1 1 2 2 2 2 2 2 2 2 2 2 2 1 2
5 3 4 4 5 4 6 4 6 8 8 8 6 5 6 6 6 7 6 5 4 3 3 3 3 3 4 4 2 2 2 1 1 1 1 1 1 2 2 2 2 2 2 2 1 2 1 1 1
4 3 6 6 6 7 8 6 4 6 7 7 7 6 5 6 7 7 6 5 4 3 3 2 3 3 4 3 3 2 2 1 1 1 2 1 1 1 2 1 1 1 2 2 2 2 2 1 1
5 7 8 8 6 8 8 6 3 4 6 6 6 6 6 7 7 7 6 5 4 3 3 3 3 3 3 3 2 2 2 1 2 1 1 1 0 1 1 1 1 1 1 1 2 2 2 1 1
7 5 3 4 5 5 5 4 2 4 5 5 6 6 6 6 6 7 6 6 5 4 3 3 3 3 3 3 2 2 2 2 2 2 1 1 0 0 1 1 1 1 1 2 1 1 1 1 1
7 7 4 3 3 4 5 4 3 5 5 4 4 4 5 5 6 6 6 5 5 4 3 3 3 3 2 2 2 2 2 1 1 1 1 1 1 1 1 1 1 1 1 1 1 1 1 1 1
7 7 6 6 8 6 4 4 5 6 6 4 4 4 4 5 5 6 6 5 5 4 3 3 3 3 3 2 1 2 2 2 2 2 1 1 1 1 1 1 1 2 1 1 1 0 0 1 1
8 7 5 5 5 5 4 4 4 6 6 5 4 4 4 4 5 5 5 5 5 4 4 3 2 2 2 2 1 2 2 1 1 2 2 2 1 1 1 1 1 2 2 2 2 1 0 1 1
8 9 6 5 6 4 4 1 3 5 5 5 4 4 4 4 5 5 4 4 4 4 4 3 3 2 2 2 2 2 2 1 1 1 1 2 2 2 2 2 2 2 2 2 2 1 1 1 1
6 7 7 5 5 5 4 1 4 5 5 5 4 4 4 4 4 5 4 4 3 4 4 3 3 2 2 2 2 2 2 2 2 1 1 1 2 2 2 1 1 2 2 2 2 2 1 1 1
Wind_Direction
258 243 235 239 250 192 77 78 73 57 63 56 48 63 63 51 49 80 100 55 68 81 80 72 61 55 53 56 56 55 55 56 58 59 68 73 73 75 75 73 73 74 77 78 78 77 78 78 75
268 253 253 232 238 110 86 86 73 65 71 77 64 65 70 65 70 89 78 58 72 77 77 74 71 62 59 59 59 58 57 59 60 62 68 71 73 74 75 75 75 75 76 78 77 77 77 77 74
263 256 254 252 58 79 95 89 91 87 73 68 78 63 57 64 69 83 94 88 81 78 80 80 78 70 65 63 61 61 60 62 63 64 69 71 72 75 77 76 75 75 76 78 79 79 78 76 73
258 248 244 77 75 73 86 104 108 101 88 70 81 81 70 60 74 91 97 90 90 88 87 91 86 80 73 66 63 63 63 64 65 65 69 72 74 75 77 78 77 77 78 80 81 81 79 76 72
241 244 197 98 85 82 79 87 95 93 86 76 82 93 87 77 86 95 93 87 89 92 93 98 94 87 80 74 69 67 67 66 66 65 67 72 74 75 76 77 79 79 79 81 82 81 78 74 70
266 259 156 107 99 93 93 90 89 88 88 90 93 95 90 92 88 90 93 87 89 94 99 102 104 96 89 83 77 72 70 69 68 67 66 68 70 75 78 78 79 79 80 81 82 81 77 74 70
269 301 129 115 109 101 88 80 86 87 84 73 88 98 105 101 96 96 93 89 92 98 105 114 116 106 97 91 85 78 74 72 71 70 70 71 72 75 77 78 78 78 80 82 81 77 74 72 69
284 346 109 106 109 102 98 96 89 86 79 78 78 94 114 121 125 112 97 89 88 96 101 109 117 117 112 102 97 91 84 79 77 75 74 73 75 79 79 79 80 79 80 86 83 81 77 73 68
294 113 95 102 114 113 120 110 100 93 85 73 72 89 109 128 128 122 111 99 90 87 92 104 104 111 113 111 108 110 102 90 88 82 80 84 80 82 83 85 90 88 86 87 88 89 87 80 70
160 70 89 97 108 118 119 104 113 113 100 94 90 99 116 129 131 126 118 111 102 91 83 96 101 104 105 101 114 122 115 114 103 95 101 80 75 73 80 93 103 103 99 96 98 91 84 82 75
124 93 96 99 104 115 115 106 86 99 95 101 114 122 127 130 123 118 112 109 106 100 92 86 94 98 100 97 105 99 95 100 81 66 68 73 75 85 89 101 110 114 119 106 102 98 65 72 71
111 91 89 102 104 109 105 97 84 79 82 93 112 122 129 137 132 122 114 115 114 106 100 84 81 92 105 103 100 101 95 77 75 70 71 70 63 58 73 86 95 92 72 57 64 67 58 60 69
131 122 109 104 118 115 105 99 95 94 98 103 112 120 131 129 121 117 118 116 113 112 101 91 81 76 79 82 81 91 89 85 81 61 70 81 78 68 65 73 69 71 69 63 54 61 57 52 52
131 121 122 131 133 136 126 119 118 120 118 120 123 128 132 120 116 113 111 117 122 123 112 100 86 80 84 92 90 82 83 76 70 62 61 76 76 73 67 68 63 65 62 66 69 75 63 60 61
144 141 149 163 172 155 145 142 139 139 137 135 138 139 128 125 119 110 110 110 122 119 110 112 110 98 83 83 83 86 84 81 70 62 56 68 71 76 75 75 74 74 66 62 62 63 63 62 63
186 189 185 177 187 171 184 168 145 151 152 147 148 140 137 136 128 119 113 114 118 117 109 101 105 89 82 70 75 77 81 81 69 55 46 59 66 70 68 68 73 76 71 64 67 66 60 59 59
200 204 189 179 184 175 193 171 165 164 161 157 156 150 151 148 141 132 121 108 98 101 110 104 92 94 90 86 80 76 77 78 71 63 50 45 59 66 70 61 61 70 74 70 65 65 66 64 59
210 212 208 189 179 184 198 181 174 181 178 167 166 159 162 158 150 134 122 105 101 102 105 103 92 102 102 90 80 73 72 71 64 59 59 52 55 64 67 64 57 60 65 68 71 74 64 62 60
237 231 218 195 177 191 210 204 181 186 187 177 175 171 168 161 145 132 125 113 107 100 100 100 104 104 94 80 86 91 76 68 64 56 59 60 67 72 70 57 58 52 62 70 78 81 74 64 70
244 246 232 188 178 198 219 222 184 183 185 181 182 180 165 155 145 137 133 127 129 121 115 118 114 118 110 99 91 108 108 89 91 64 52 48 62 67 78 86 82 69 60 55 62 66 57 18 38
246 253 245 225 204 224 237 226 191 180 172 176 185 177 160 156 151 147 144 138 138 131 131 135 134 119 118 115 94 82 90 85 81 79 47 28 63 68 59 67 90 96 93 86 77 71 64 5 351
248 266 266 249 238 239 234 235 191 179 171 176 180 176 159 153 149 148 149 147 148 140 138 144 136 123 121 125 119 116 107 120 148 136 120 59 59 65 66 67 69 86 81 98 100 83 62 53 2
247 258 258 251 251 258 242 246 196 180 176 177 174 173 161 153 148 148 147 145 148 137 136 143 135 126 121 120 130 138 135 144 128 111 112 88 59 62 64 72 60 83 92 100 85 78 66 56 51
244 243 240 242 248 251 237 238 203 185 178 174 172 170 163 157 151 147 142 137 137 132 136 140 132 125 128 134 144 154 155 134 116 109 120 109 76 78 84 107 82 80 104 102 96 98 88 67 45
230 242 236 221 218 235 219 224 190 130 142 150 161 165 157 149 149 147 145 144 141 144 148 154 142 136 141 152 156 151 154 166 152 155 165 156 142 179 234 142 131 131 126 116 100 99 117 104 79
234 234 232 246 255 264 221 204 148 119 115 119 121 130 138 138 144 145 146 144 142 141 147 156 155 152 157 170 171 157 150 162 160 165 158 168 171 197 187 150 140 116 98 107 98 76 81 102 99
239 237 243 262 269 264 216 156 142 132 129 120 116 112 115 129 131 137 140 142 144 146 149 155 157 152 153 159 149 155 163 164 180 178 168 171 170 196 176 165 152 136 121 111 108 107 118 100 113
244 250 254 248 262 267 246 190 162 156 148 135 131 123 122 126 130 131 140 149 152 154 159 159 159 162 153 148 151 155 154 173 182 176 178 178 181 176 183 213 179 157 154 152 138 153 209 162 141
224 231 234 249 256 259 267 164 115 143 129 130 130 131 132 129 135 136 140 152 149 150 155 156 159 158 160 163 172 165 167 167 116 132 196 181 183 184 195 204 190 169 161 157 151 174 214 196 140
246 247 244 241 258 270 268 148 107 119 118 118 118 122 130 129 133 131 132 136 139 147 158 163 169 165 169 172 177 182 172 155 158 181 186 183 188 188 187 196 203 184 168 162 168 191 201 165 145